This is the latest recevied weather packets stored in our database for station/object OE9XVI-6. If no packets are shown the sender has not sent any weather packets the latest 1 day(s).
| Time | Temp. | Humidity | Pressure | Rain* | Wind** | Luminosity | Snow |
|---|---|---|---|---|---|---|---|
| 1778070411 | 13.89° C | 70% | 1007.1 hPa | 0 mm | - | - | - |
| 1778069811 | 14.44° C | 72% | 1007 hPa | 0 mm | - | - | - |
| 1778069211 | 13.33° C | 76% | 1006.7 hPa | 0 mm | - | - | - |
| 1778068611 | 12.78° C | 76% | 1007 hPa | 0 mm | - | - | - |
| 1778068011 | 11.11° C | 79% | 1007.2 hPa | 0 mm | - | - | - |
| 1778067411 | 11.11° C | 78% | 1007.2 hPa | 0 mm | - | - | - |
| 1778066811 | 11.67° C | 78% | 1007.1 hPa | 0 mm | - | - | - |
| 1778065011 | 11.67° C | 83% | 1006.7 hPa | 0 mm | - | - | - |
| 1778064411 | 11.67° C | 84% | 1006.7 hPa | 0 mm | - | - | - |
| 1778063811 | 11.11° C | 85% | 1006.9 hPa | 0 mm | - | - | - |
| 1778061411 | 11.67° C | 78% | 1007.1 hPa | 0 mm | - | - | - |
| 1778057811 | 10.56° C | 75% | 1007 hPa | 0 mm | - | - | - |
| 1778049412 | 10° C | 77% | 1007.4 hPa | 0 mm | - | - | - |
| 1778048212 | 10° C | 76% | 1007.2 hPa | 0 mm | - | - | - |
| 1778047612 | 10° C | 77% | 1007.3 hPa | 0 mm | - | - | - |
| 1778046412 | 9.44° C | 77% | 1007.4 hPa | 0 mm | - | - | - |
| 1778045812 | 9.44° C | 78% | 1007.3 hPa | 0 mm | - | - | - |
| 1778045212 | 9.44° C | 78% | 1007.4 hPa | 0 mm | - | - | - |
| 1778044612 | 8.89° C | 79% | 1007.4 hPa | 0 mm | - | - | - |
| 1778044012 | 8.33° C | 79% | 1007.4 hPa | 0 mm | - | - | - |
| 1778043412 | 8.33° C | 62% | 1007.6 hPa | 0 mm | - | - | - |
| 1778042812 | 8.33° C | 80% | 1007.7 hPa | 0 mm | - | - | - |
| 1778042212 | 8.33° C | 80% | 1007.7 hPa | 0 mm | - | - | - |
| 1778041612 | 8.33° C | 80% | 1007.8 hPa | 0 mm | - | - | - |
| 1778041012 | 8.33° C | 80% | 1007.9 hPa | 0 mm | - | - | - |
* Rain latest hour (hover to see other rain measurements)
** Current wind speed in m/s (hover to see current wind gust speed)